Theta_e
321 321 321 321 321 322 322 322 322 322 322 323 323 323 323 323 321 316 309 313 318 329 325 310 309 310 308 305 307 305 294 294 299 302 306 315 317 329 332 327 331 329 329 330 335
320 320 321 320 320 321 321 322 323 323 323 323 323 323 323 322 314 311 324 331 331 331 308 305 304 308 303 303 303 298 292 297 305 307 306 311 314 322 324 325 325 327 329 333 335
319 319 320 320 319 320 321 321 322 323 323 323 324 323 322 320 312 315 337 335 333 325 311 311 312 308 300 302 301 301 296 303 306 308 311 310 313 315 319 318 326 322 324 333 334
319 319 319 319 319 319 320 320 321 322 323 323 323 322 322 316 303 312 335 336 332 313 310 311 310 300 298 298 303 297 303 304 307 309 307 309 313 312 317 321 331 330 335 333 331
318 318 318 318 318 319 319 319 320 320 321 321 322 323 314 311 311 321 341 335 321 311 310 311 306 301 298 301 302 300 303 306 307 306 305 314 311 311 321 325 331 329 328 326 326
317 317 317 318 318 318 318 318 318 319 319 320 322 322 314 305 318 323 324 318 314 311 310 311 308 308 305 303 301 304 304 303 305 306 306 306 308 311 327 329 325 326 328 331 330
316 316 316 317 317 318 317 317 317 317 318 320 321 319 312 311 319 321 319 314 315 315 312 311 311 308 306 304 308 307 301 304 305 304 305 308 305 310 326 327 325 326 327 327 326
316 315 316 316 317 317 317 316 316 317 320 322 322 314 309 323 320 315 315 314 315 314 314 314 313 307 303 308 308 301 301 294 301 304 305 307 298 311 325 322 320 322 321 321 322
315 314 315 315 316 316 316 315 316 319 322 322 314 310 309 320 315 318 317 315 314 314 314 318 309 305 306 300 297 298 293 295 299 304 304 304 304 320 323 321 318 317 318 318 317
314 314 314 314 315 315 314 314 318 317 318 320 318 309 315 314 312 317 316 318 313 312 310 307 304 300 299 296 290 295 295 299 298 302 304 306 312 318 321 319 316 316 316 315 315
314 313 313 313 314 313 311 311 313 310 312 310 311 311 314 315 316 312 315 313 311 308 300 305 297 295 299 302 301 301 300 299 304 306 304 312 311 315 318 317 314 314 313 313 312
313 313 313 313 313 313 307 305 312 313 305 315 316 314 317 313 309 312 314 306 305 300 303 300 297 303 306 304 302 300 298 297 301 306 303 311 309 314 316 314 314 312 312 311 310
312 312 312 312 312 310 310 308 314 314 303 310 314 314 312 311 309 308 310 307 304 301 302 298 302 309 306 301 301 297 295 297 297 302 303 306 306 311 314 312 312 311 311 310 309
311 311 312 311 309 311 310 313 313 313 298 305 310 313 311 310 307 314 313 308 306 302 304 301 305 305 302 302 301 295 305 304 302 297 291 300 288 305 309 308 309 309 308 307 307
311 311 311 309 307 307 312 315 315 314 290 309 306 313 311 306 308 309 313 309 303 305 303 300 303 302 301 303 305 300 305 302 302 296 294 296 290 301 308 305 307 307 307 307 307
310 311 310 312 308 311 315 314 312 298 292 303 307 305 304 306 308 308 308 311 310 306 305 303 308 305 302 306 306 305 301 299 297 293 287 293 293 298 303 305 306 307 307 307 307
309 309 307 312 310 316 314 309 296 292 308 301 301 305 303 303 305 307 304 302 299 296 298 303 303 305 307 301 303 301 294 287 287 286 287 298 298 299 309 310 309 306 306 307 307
308 307 311 313 316 316 312 302 291 302 303 311 305 304 301 303 303 305 304 300 306 303 297 297 297 304 307 302 296 296 294 289 282 284 288 300 295 297 310 312 311 308 306 306 305
307 311 314 321 318 316 306 294 296 303 309 308 307 300 300 303 304 303 301 302 306 304 297 297 298 307 307 306 301 295 291 295 291 291 287 293 298 305 307 306 306 305 305 304 303
304 309 315 325 323 314 303 298 303 309 310 311 302 302 298 300 300 300 301 305 306 308 305 301 295 305 306 306 305 298 298 289 289 283 282 291 295 295 299 301 304 303 303 304 304
305 311 318 319 319 308 298 301 307 312 311 310 306 304 305 304 302 301 301 306 309 306 305 300 297 300 305 300 299 297 295 294 293 292 286 285 290 302 302 303 303 304 305 303 305
305 305 317 320 304 305 301 306 307 310 310 310 309 307 306 307 305 304 305 308 311 309 303 305 300 294 298 304 307 300 296 293 287 288 291 290 290 305 306 306 307 305 306 303 302
300 305 319 316 299 300 308 310 310 309 309 306 306 306 307 304 299 305 306 310 310 311 305 304 296 290 293 298 303 302 303 298 295 293 289 285 289 304 305 303 304 303 303 303 302
301 302 310 313 309 305 305 306 309 311 307 308 308 309 304 303 304 303 304 310 310 308 313 310 299 294 289 295 299 299 302 300 295 286 290 290 294 299 301 301 302 302 301 300 300
306 305 305 301 302 303 308 308 307 307 308 309 305 306 304 298 301 303 305 305 308 309 305 302 294 298 300 302 301 301 299 297 293 294 289 292 296 299 300 301 301 302 302 300 300
305 303 306 302 305 303 303 305 305 307 308 308 303 307 306 300 303 301 307 302 303 303 300 302 295 298 297 302 301 299 300 298 297 297 295 296 296 301 302 302 302 302 301 299 299
306 309 305 301 301 299 300 303 304 308 309 311 311 307 306 308 310 308 309 308 307 303 301 302 297 295 291 301 299 291 298 299 297 299 297 292 298 302 300 302 300 299 300 299 299
Wind_Speed
16 15 13 12 11 11 11 11 10 10 10 10 10 10 10 11 15 2 6 11 7 3 4 6 9 9 8 7 8 6 3 7 17 13 2 8 11 9 10 12 7 6 11 14 12
17 16 14 13 12 11 11 11 11 10 10 9 9 9 9 10 4 9 13 6 5 4 4 7 11 8 6 7 6 4 2 12 17 12 7 3 7 13 10 14 12 7 10 19 14
19 18 16 14 13 12 11 11 11 11 10 10 8 8 8 7 4 7 13 10 7 4 3 6 9 8 7 7 9 9 8 16 19 10 8 4 10 5 8 12 16 23 17 14 10
20 20 19 17 16 14 13 12 11 12 11 9 8 8 7 4 3 3 9 9 6 4 4 7 8 6 5 8 9 6 13 13 15 10 6 4 5 10 8 10 26 27 24 15 7
20 21 21 18 17 15 14 13 13 12 11 9 7 6 4 3 10 5 7 8 6 3 7 9 8 7 8 8 9 7 11 9 8 8 9 6 5 9 28 29 24 21 21 16 18
20 20 20 19 18 17 15 14 13 12 12 9 7 4 2 6 7 11 10 8 8 8 10 10 9 9 6 6 4 7 6 3 5 10 5 5 1 9 23 27 25 25 21 20 20
21 21 20 20 19 18 17 15 13 13 12 8 7 4 6 14 9 12 11 9 9 13 14 9 3 8 9 9 10 7 6 7 7 6 1 0 5 15 25 27 25 24 21 19 17
21 21 22 21 21 19 18 17 16 14 10 7 5 4 8 8 9 8 9 9 7 7 7 5 9 6 4 7 8 3 5 5 11 8 4 11 4 12 22 27 23 22 18 17 17
22 22 22 22 22 21 19 19 17 11 3 7 4 4 9 3 4 7 8 9 8 6 5 4 2 6 9 5 6 5 8 9 11 12 6 9 8 20 20 23 19 17 16 16 15
23 23 23 22 23 22 24 13 6 11 4 7 7 5 7 11 6 8 3 4 4 6 5 5 3 3 5 1 7 6 6 7 8 6 7 12 10 9 17 23 17 15 15 15 14
25 24 24 24 22 20 14 3 3 1 5 10 8 6 8 8 4 3 5 3 7 4 6 8 2 8 13 11 3 6 7 9 5 9 11 13 9 8 17 19 18 15 14 13 12
26 26 26 26 23 20 4 4 9 7 5 16 19 19 20 5 7 10 7 6 7 8 8 6 11 12 0 6 7 8 7 9 4 7 8 11 8 9 13 12 17 17 13 12 8
25 26 26 29 32 3 6 10 11 17 3 14 15 14 8 2 10 10 11 10 10 9 10 11 8 4 5 6 2 4 5 8 6 3 1 11 5 13 12 18 16 14 13 10 8
25 25 24 31 4 5 5 11 16 10 3 8 10 17 7 7 7 14 9 9 9 9 8 6 4 5 1 5 5 2 8 9 6 6 2 5 4 6 11 13 13 12 11 11 9
26 25 25 11 8 4 7 7 4 6 3 8 8 7 10 8 7 6 2 4 8 8 2 7 3 5 2 4 8 5 9 7 6 8 6 11 7 2 7 9 12 10 11 8 8
28 27 22 2 4 12 13 11 5 2 8 7 8 6 7 9 6 6 5 1 7 6 7 6 1 3 4 6 5 6 4 6 5 1 4 10 4 5 6 9 8 11 10 10 8
31 33 11 5 7 6 10 2 1 5 4 9 13 12 11 9 9 8 7 6 4 1 4 8 7 4 7 5 7 5 4 4 5 3 7 6 8 2 10 11 13 12 11 9 8
33 33 6 9 9 9 2 4 5 10 10 3 14 14 10 9 9 8 7 6 8 3 3 3 6 7 5 5 4 6 2 4 3 3 4 6 3 3 4 9 7 12 9 7 7
31 4 5 6 12 4 4 3 6 7 5 7 7 10 8 11 7 7 8 5 3 5 4 5 6 6 7 6 4 6 4 3 2 5 5 5 3 3 6 9 12 10 9 7 3
7 5 6 8 9 3 2 7 8 12 16 6 7 2 6 10 7 6 8 8 7 8 9 2 3 6 1 5 5 9 5 6 5 2 3 2 4 6 7 7 7 8 7 7 6
2 4 3 8 5 2 4 7 12 15 9 3 7 9 10 5 4 3 8 9 7 7 6 3 3 5 7 7 4 6 5 4 3 3 1 2 2 7 14 11 12 11 9 8 4
5 3 4 6 2 3 5 7 9 16 6 2 5 6 7 8 1 2 6 5 5 7 5 3 3 2 4 10 1 4 4 2 6 6 1 4 4 4 13 12 11 10 11 8 9
6 5 6 6 3 5 7 14 18 4 4 4 5 7 5 6 4 10 6 4 7 7 3 1 0 2 8 9 5 4 5 4 4 4 1 3 5 7 10 10 9 13 9 8 8
4 5 3 1 4 4 8 12 15 7 4 7 6 5 4 4 3 2 9 3 7 5 5 5 2 5 7 8 1 3 6 4 6 5 4 4 6 4 8 10 9 9 9 9 11
4 3 2 4 5 11 7 8 11 7 5 2 4 5 7 0 3 4 10 9 7 5 3 4 2 2 5 7 11 14 2 5 5 5 7 3 8 6 8 10 9 8 8 11 13
4 5 7 8 8 8 7 6 8 13 6 4 6 7 7 3 5 4 7 4 6 2 4 2 0 3 6 10 12 11 7 4 6 5 2 9 8 7 7 8 10 9 10 12 12
6 6 4 6 7 6 5 7 11 8 11 9 5 3 7 8 9 8 9 7 7 8 6 7 5 3 4 7 10 8 2 4 4 4 6 4 8 7 9 10 8 8 10 11 9
Wind_Direction
4 359 352 347 339 332 327 319 312 308 304 304 309 314 318 321 309 195 239 233 193 220 329 283 283 251 246 258 270 290 349 273 272 285 324 5 76 56 106 114 82 123 171 150 157
3 359 353 347 339 331 323 317 312 307 302 301 307 315 319 330 278 242 238 190 144 154 230 242 267 250 225 244 252 183 200 254 264 280 323 325 24 120 121 101 86 101 103 122 133
2 360 353 349 342 331 322 315 310 306 303 305 311 314 319 318 289 240 155 179 161 206 265 288 281 275 230 232 235 243 220 255 273 278 305 3 14 44 134 122 159 138 144 168 167
358 356 352 348 341 333 325 316 309 305 304 307 314 310 316 261 324 138 168 178 185 253 281 272 271 280 287 272 250 207 241 242 265 283 350 3 30 355 44 44 136 141 148 161 160
352 351 348 343 339 332 324 316 310 304 301 302 303 313 304 228 251 152 170 179 193 193 234 246 262 229 234 239 262 230 248 252 267 294 304 85 61 78 82 92 121 105 102 85 68
348 345 343 338 336 331 324 314 304 300 298 298 290 311 230 256 152 153 186 173 222 201 249 251 252 256 262 268 264 248 278 284 331 301 309 47 83 87 95 99 89 85 78 69 62
346 342 339 336 333 329 324 314 303 298 294 285 263 260 258 248 161 171 193 202 207 220 247 280 323 10 342 313 274 301 357 343 299 275 207 217 51 64 110 95 92 86 83 74 67
344 340 337 335 331 327 323 314 302 296 288 248 218 255 256 256 231 161 197 245 212 253 274 320 1 307 270 293 318 329 322 261 257 234 154 95 66 91 106 99 98 95 89 83 80
341 339 336 333 330 327 321 309 295 289 247 160 178 214 266 248 213 224 222 240 177 226 250 318 291 247 306 270 325 275 235 231 272 169 147 118 112 78 99 97 98 99 99 92 83
339 337 334 332 329 327 321 282 278 314 197 200 253 297 256 247 187 233 231 311 242 213 248 203 247 233 301 148 239 276 256 316 137 185 135 90 86 82 111 104 101 94 94 93 94
337 334 332 330 328 329 339 354 338 335 234 211 187 247 271 125 112 186 215 200 283 264 242 252 154 227 234 239 303 16 352 335 82 141 105 120 117 100 121 112 111 100 92 89 91
333 333 331 327 322 322 277 248 249 292 267 225 249 263 257 157 188 204 178 189 217 238 247 296 228 255 36 44 31 4 333 308 336 138 121 139 136 103 76 93 112 113 111 112 104
331 331 330 324 317 280 210 238 269 291 316 285 240 236 243 230 257 162 164 213 233 240 239 222 264 88 40 347 355 280 252 282 272 341 254 106 104 110 96 96 96 93 100 93 115
328 329 331 331 340 337 241 249 245 258 326 258 192 222 195 206 256 160 184 211 278 238 269 213 151 75 226 240 238 270 353 11 356 36 235 136 243 114 127 112 112 123 108 110 102
325 325 324 313 298 270 267 291 39 49 280 154 166 191 177 184 189 193 171 287 264 311 198 251 133 138 279 31 30 115 29 356 340 336 36 315 79 225 138 133 135 123 114 111 108
322 319 330 258 206 248 291 303 55 26 243 184 144 163 158 214 213 135 179 260 276 290 329 299 85 41 66 24 356 19 6 340 328 292 327 254 240 220 182 180 164 121 125 114 109
321 313 306 262 233 325 327 274 38 222 282 153 160 159 191 198 236 145 179 200 220 234 287 266 249 116 80 21 329 20 14 326 338 354 223 250 109 227 221 133 130 133 118 112 113
322 310 234 211 235 271 294 42 234 256 252 256 166 176 190 204 211 164 199 204 226 182 299 325 298 123 115 77 22 337 148 169 254 268 261 11 54 338 38 131 128 100 101 88 89
319 295 260 244 221 256 46 246 218 231 348 349 270 175 183 222 186 159 173 260 92 92 85 24 40 110 99 85 103 299 329 239 22 320 24 120 138 27 73 70 88 99 104 121 131
317 290 263 246 185 84 98 246 262 301 305 338 327 216 193 206 193 148 171 207 152 112 106 5 21 13 131 174 278 157 244 15 354 352 306 164 159 178 158 148 138 122 138 179 186
239 300 249 122 86 95 205 244 271 262 255 30 318 324 332 344 209 161 186 22 113 105 82 51 98 308 359 34 344 3 356 359 105 105 177 352 278 184 163 173 165 172 182 179 189
317 291 220 115 114 214 226 242 258 281 37 44 306 302 302 352 129 311 70 66 55 114 85 38 98 36 300 291 116 48 313 56 110 322 20 143 302 50 141 170 161 154 132 126 98
313 269 266 116 225 245 282 277 277 243 310 281 229 270 290 316 7 91 92 72 43 58 92 298 64 50 352 353 28 63 337 126 137 85 330 102 240 122 94 95 115 119 125 119 112
288 304 290 142 231 297 296 300 300 186 231 294 323 289 283 252 337 351 120 88 69 82 139 86 97 151 179 235 258 244 235 328 138 110 214 236 188 155 120 124 121 105 101 103 86
239 289 351 343 340 323 326 267 319 332 146 263 309 298 291 48 240 276 109 121 113 172 91 95 135 331 288 284 286 282 211 278 270 218 135 282 79 90 99 99 111 122 102 84 88
315 2 342 297 295 306 305 315 306 308 317 287 219 253 294 245 230 289 146 110 150 167 130 117 147 347 301 292 276 292 264 218 286 286 143 95 85 113 114 103 76 72 79 84 83
343 335 308 293 306 309 272 277 290 276 289 288 4 63 346 66 86 113 106 108 121 139 173 149 151 117 272 324 332 321 11 74 19 39 118 112 161 133 79 90 100 86 81 89 89